Погода в Кисловодске

Россия / Ставропольский край     43°54′18″N   42°43′00″E
темп.,
°C
ветер,
м/с
пор.,
м/с
влажн.,
%
обл.,
%
осадки,
мм/ч
давл.,
гПа
погр.,
м
27 ноября, сб
сб2700:00−2ю22835 0.0 102213
03:00−1ю22762 0.0 102112
06:00−1ю32664 0.0 102013
09:00+3ю225649 0.0 101823
12:00+8всв115086 0.0 101677
15:00+6ююв1159100 0.0 101614
18:00+5ю2252100 0.0 101810
21:00+4ю1147100 0.0 101810
28 ноября, вс
вс2800:00+5ю334591 0.0 101719
03:00+6ю3252100 0.0 101613
06:00+6ю3256100 0.0 101513
09:00+8ююз225494 0.0 101512
12:00+12в1244100 0.0 1013194
15:00+10всв22586 0.0 101236
18:00+6ююз1164100 0.0 101510
21:00+7ю2261100 0.0 101411
29 ноября, пн
пн2900:00+7ююз116399 0.0 101410
03:00+6зюз2265100 0.0 101510
06:00+7ю1165100 0.0 101510
09:00+9ю215955 0.0 101511
12:00+14вюв234243 0.0 1013254
15:00+14в224817 0.0 101220
18:00+11ю225161 0.0 101211
21:00+11ю334611 0.0 101021
30 ноября, вт
вт3000:00+11ююз334879 0.0 100718
03:00+12ююз3350100 0.0 100518
06:00+12зюз3351100 0.0 100419
09:00+8сз258797 0.0 1009357
12:00+9ю2383100 0.1 1006169
15:00+9св129093 0.3 1007187
18:00+7юв229517 0.0 100527
21:00+7юв5791100 0.0 1000205
1 декабря, ср
ср100:00+7ю3492100 1.4 997133
03:00+5зсз3697100 6.5 1000625
06:00+8зюз9175999 2.3 1001530
09:00+1зсз81587100 2.3 1009540
12:00+2зсз6975100 0.0 1010578
15:00+3зсз71173100 0.0 1009735
18:00+1сз4983100 0.0 1012657
21:000сз3993100 0.4 1015659